This is the latest recevied weather packets stored in our database for station/object DL2DHM-13. If no packets are shown the sender has not sent any weather packets the latest 10 day(s).
| Time | Temp. | Humidity | Pressure | Rain* | Wind** | Luminosity | Snow |
|---|---|---|---|---|---|---|---|
| 1777214425 | 14.44° C | 41% | 1023.3 hPa | 0 mm | - | 468 W/m² | - |
| 1777209619 | 13.89° C | 41% | 1023.7 hPa | 0 mm | - | 577 W/m² | - |
| 1777206614 | 13.33° C | 48% | 1024 hPa | 0 mm | - | 759 W/m² | - |
| 1777205111 | 13.33° C | 45% | 1024.2 hPa | 0 mm | - | 780 W/m² | - |
| 1777203009 | 12.78° C | 47% | 1024.5 hPa | 0 mm | - | 782 W/m² | - |
| 1777201803 | 12.78° C | 50% | 1024.6 hPa | 0 mm | - | 788 W/m² | - |
| 1777199155 | 11.11° C | 61% | 1024.8 hPa | 0 mm | - | 740 W/m² | - |
| 1777197048 | 10.56° C | 62% | 1024.8 hPa | 0 mm | - | 710 W/m² | - |
| 1777193146 | 9.44° C | 67% | 1024.9 hPa | 0 mm | - | 645 W/m² | - |
| 1777191029 | 8.33° C | 74% | 1024.9 hPa | 0 mm | - | 432 W/m² | - |
| 1777190126 | 7.78° C | 76% | 1024.9 hPa | 0 mm | - | 434 W/m² | - |
| 1777188622 | 7.22° C | 79% | 1024.7 hPa | 0 mm | - | 230 W/m² | - |
| 1777188325 | 7.22° C | 80% | 1024.7 hPa | 0 mm | - | 207 W/m² | - |
| 1777186817 | 6.11° C | 84% | 1024.3 hPa | 0 mm | - | 167 W/m² | - |
| 1777186518 | 6.11° C | 85% | 1024.3 hPa | 0 mm | - | 174 W/m² | - |
| 1777185914 | 6.11° C | 88% | 1024.2 hPa | 0 mm | - | 162 W/m² | - |
| 1777184716 | 5° C | 93% | 1024.1 hPa | 0 mm | - | 262 W/m² | - |
| 1777183207 | 2.78° C | 93% | 1023.9 hPa | 0 mm | - | 174 W/m² | - |
| 1777181760 | 1.67° C | 92% | 1023.8 hPa | 0 mm | - | 35 W/m² | - |
| 1777179655 | 1.11° C | 92% | 1023.4 hPa | 0 mm | - | 23 W/m² | - |
| 1777177858 | 1.11° C | 91% | 1023 hPa | 0 mm | - | 14 W/m² | - |
| 1777177550 | 1.11° C | 91% | 1022.9 hPa | 0 mm | - | 12 W/m² | - |
| 1777177250 | 1.11° C | 91% | 1022.9 hPa | 0 mm | - | 9 W/m² | - |
| 1777175747 | 1.11° C | 91% | 1022.5 hPa | 0 mm | - | 0 W/m² | - |
| 1777175444 | 1.67° C | 91% | 1022.5 hPa | 0 mm | - | 0 W/m² | - |
* Rain latest hour (hover to see other rain measurements)
** Current wind speed in m/s (hover to see current wind gust speed)